This demonstration page uses our WeatherBlox Daily Observations layout. Learn more.

Left ArrowRight Arrow

Hourly Observations for February 21, 2015

Temp ( °F °C ) Dew Point ( °F °C ) Humidity (%) Winds ( mph kmh ) Pressure ( in mb ) Visibility ( mi km ) Precip ( " mm )
12:53 am 00:53 Clear 61 16.1 30 -1.1 31 31 NNW 13 20 29.97 1015 10 16 0.00 0.00
1:53 am 01:53 Clear 61 16.1 29 -1.7 30 30 NNW 13 20 29.97 1015 10 16 0.00 0.00
2:53 am 02:53 Clear 59 15 30 -1.1 33 33 NNW 9 15 29.96 1014 10 16 0.00 0.00
3:53 am 03:53 Clear 60 15.6 30 -1.1 32 32 N 16 26 29.94 1014 10 16 0.00 0.00
4:53 am 04:53 Clear 59 15 30 -1.1 33 33 N 13 20 29.95 1014 10 16 0.00 0.00
5:53 am 05:53 Clear 58 14.4 32 0 38 38 N 10 17 29.95 1014 10 16 0.00 0.00
6:53 am 06:53 Clear 58 14.4 31 -0.6 36 36 NNW 12 19 29.96 1014 10 16 0.00 0.00
7:53 am 07:53 Sunny 60 15.6 29 -1.7 31 31 NNW 10 17 29.96 1015 10 16 0.00 0.00
8:53 am 08:53 Sunny 62 16.7 28 -2.2 28 28 N 15 24 29.96 1015 10 16 0.00 0.00
9:53 am 09:53 Sunny 65 18.3 28 -2.2 25 25 N 14 22 29.94 1014 10 16 0.00 0.00
10:53 am 10:53 Sunny 67 19.4 28 -2.2 23 23 N 16 26 29.92 1013 10 16 0.00 0.00
11:53 am 11:53 Sunny 69 20.6 24 -4.4 18 18 N 20 31 29.89 1012 10 16 0.00 0.00
12:53 pm 12:53 Sunny 71 21.7 30 -1.1 22 22 NNE 16 26 29.87 1011 10 16 0.00 0.00
1:53 pm 13:53 Sunny 72 22.2 30 -1.1 21 21 NNE 14 22 29.84 1011 10 16 0.00 0.00
2:53 pm 14:53 Sunny 72 22.2 30 -1.1 21 21 NNE 14 22 29.82 1010 10 16 0.00 0.00
3:53 pm 15:53 Sunny 72 22.2 30 -1.1 21 21 NE 17 28 29.81 1009 10 16 0.00 0.00
4:53 pm 16:53 Sunny 69 20.6 21 -6.1 16 16 NE 22 35 29.82 1010 10 16 0.00 0.00
5:53 pm 17:53 Clear 67 19.4 16 -8.9 14 14 NE 22 35 29.83 1010 10 16 0.00 0.00
6:53 pm 18:53 Clear 63 17.2 20 -6.7 19 19 NNE 20 31 29.87 1012 10 16 0.00 0.00
7:53 pm 19:53 Clear 62 16.7 21 -6.1 21 21 NNE 22 35 29.91 1013 10 16 0.00 0.00
8:53 pm 20:53 Clear 61 16.1 22 -5.6 22 22 NNE 33 54 29.92 1013 10 16 0.00 0.00
9:53 pm 21:53 Clear 59 15 24 -4.4 26 26 NNE 26 43 29.96 1015 10 16 0.00 0.00
10:53 pm 22:53 Clear 57 13.9 26 -3.3 30 30 NNE 28 44 29.96 1015 10 16 0.00 0.00
11:53 pm 23:53 Clear 56 13.3 26 -3.3 32 32 NNE 25 41 29.97 1015 10 16 0.00 0.00

Powered by AerisWeather